This demonstration page uses our WeatherBlox Daily Observations layout. Learn more.

Left ArrowRight Arrow

Hourly Observations for May 16, 2020

Temp ( °F °C ) Dew Point ( °F °C ) Humidity (%) Winds ( mph kmh ) Pressure ( in mb ) Visibility ( mi km ) Precip ( " mm )
12:51 am 00:51 Clear 65 18.3 27 -2.8 24 24 WNW 7 11 29.73 1007 10 16.0934 0 0
1:51 am 01:51 Clear 62 16.7 28 -2.2 28 28 NNE 5 7 29.73 1007 10 16.0934 0 0
2:51 am 02:51 Clear 62 16.7 28 -2.2 28 28 N 6 9 29.72 1007 10 16.0934 0 0
3:51 am 03:51 Clear 61 16.1 28 -2.2 29 29 S 6 9 29.75 1007 10 16.0934 0 0
4:51 am 04:51 Clear 55 12.8 28 -2.2 35 35 ENE 3 6 29.78 1008 10 16.0934 0 0
5:51 am 05:51 Sunny 56 13.3 28 -2.2 34 34 ESE 7 11 29.79 1009 10 16.0934 0 0
6:51 am 06:51 Sunny 66 18.9 30 -1.1 26 26 SSE 6 9 29.8 1009 10 16.0934 0 0
7:51 am 07:51 Sunny 71 21.7 32 0 24 24 SSW 6 9 29.81 1010 10 16.0934 0 0
8:51 am 08:51 Sunny 77 25 34 1.1 21 21 VRB 7 11 29.8 1009 10 16.0934 0 0
9:51 am 09:51 Sunny 83 28.3 36 2.2 19 19 WNW 9 15 29.79 1009 10 16.0934 0 0
10:51 am 10:51 Sunny 87 30.6 36 2.2 16 16 W 8 13 29.77 1008 10 16.0934 0 0
11:51 am 11:51 Sunny 88 31.1 35 1.7 15 15 VRB 5 7 29.75 1008 10 16.0934 0 0
12:51 pm 12:51 Sunny 90 32.2 33 0.6 13 13 VRB 5 7 29.73 1007 10 16.0934 0 0
1:51 pm 13:51 Sunny 92 33.3 34 1.1 13 13 VRB 5 7 29.72 1006 10 16.0934 0 0
2:51 pm 14:51 Sunny 93 33.9 35 1.7 13 13 W 8 13 29.68 1005 10 16.0934 0 0
3:51 pm 15:51 Sunny 94 34.4 33 0.6 12 12 W 13 20 29.66 1005 10 16.0934 0 0
4:51 pm 16:51 Sunny 93 33.9 34 1.1 12 12 NW 14 22 29.67 1005 10 16.0934 0 0
5:51 pm 17:51 Sunny 93 33.9 30 -1.1 10 10 NW 15 24 29.66 1005 10 16.0934 0 0
6:51 pm 18:51 Sunny 89 31.7 30 -1.1 12 12 WNW 13 20 29.66 1004 10 16.0934 0 0
7:51 pm 19:51 Clear 85 29.4 32 0 15 15 WNW 13 20 29.68 1005 10 16.0934 0 0
8:51 pm 20:51 Clear 81 27.2 30 -1.1 16 16 WNW 12 19 29.71 1006 10 16.0934 0 0
9:51 pm 21:51 Clear 78 25.6 31 -0.6 18 18 WNW 12 19 29.72 1007 10 16.0934 0 0
10:51 pm 22:51 Clear 73 22.8 30 -1.1 20 20 WNW 7 11 29.73 1007 10 16.0934 0 0
11:51 pm 23:51 Clear 73 22.8 31 -0.6 21 21 WNW 9 15 29.72 1007 10 16.0934 0 0

Powered by AerisWeather